Regional Weather Roundup
Issued by NWS

Home | Current Version | Previous Version | Text Only | Print | Product List | Glossary On
Versions: 1 2 3 4 5 6 7 8 9 10 11 12 13 14 15 16 17 18 19 20 21 22 23 24 25 26 27 28 29 30 31 32 33 34 35 36 37 38 39 40 41 42 43 44 45 46 47 48 49 50
000
ASUS43 KLSX 292110
RWRMO

WEATHER SUMMARY FOR MISSOURI
NATIONAL WEATHER SERVICE SPRINGFIELD MO
400 PM CDT MON MAY 29 2017

NOTE: "FAIR" INDICATES FEW OR NO CLOUDS BELOW 12,000 FEET WITH NO
       SIGNIFICANT WEATHER AND/OR OBSTRUCTIONS TO VISIBILITY.
       CURRENT SKY AND/OR WEATHER CONDITIONS ARE NOT AVAILABLE FOR
       CHILLICOTHE AND FARMINGTON.

MOZ001>031-035>038-043-044-053-054-292200-
...NORTHERN AND WESTERN MISSOURI...

CITY           SKY/WX    TMP DP  RH WIND       PRES   REMARKS
KANSAS CTY INT MOSUNNY   80  47  31 W15G21    30.00R
KANSAS C DTWN  SUNNY     81  48  31 VRB3      29.98S
LEE`S SUMMIT   SUNNY     80  48  32 NW10      29.99F
ST JOSEPH      MOSUNNY   81  42  25 NW15G25   29.98S
CHILLICOTHE      N/A     79  45  29 NW9G17    29.97S
KIRKSVILLE     MOSUNNY   79  45  29 W14       29.96S

$$
MOZ066>068-077>081-088>096-101>105-292200-
...SOUTHWEST MISSOURI...

CITY           SKY/WX    TMP DP  RH WIND       PRES   REMARKS
SPRINGFIELD    MOSUNNY   81  52  36 W12G21    30.01S
JOPLIN         MOSUNNY   85  57  38 W8        30.00F
BRANSON        PTSUNNY   81  57  44 W10       30.03F

$$
MOZ032>034-039>042-045>050-055>058-069>072-292200-
...CENTRAL MISSOURI...

CITY           SKY/WX    TMP DP  RH WIND       PRES   REMARKS
COLUMBIA       SUNNY     82  53  36 NW14      29.95R
JEFFERSON CITY MOSUNNY   84  52  33 NW13      29.93S
ROLLA          MOSUNNY   78  54  43 W14       29.95S
SEDALIA        SUNNY     81  53  37 W13G20    29.98F
WHITEMAN AFB   SUNNY     81  49  32 NW9       29.96F
WARRENSBURG    SUNNY     79  50  36 W6        29.98F
OSAGE BEACH    MOSUNNY   82  54  37 W12       29.98S

$$
MOZ051-052-059>065-292200-
...EAST CENTRAL MISSOURI...

CITY           SKY/WX    TMP DP  RH WIND       PRES   REMARKS
ST LOUIS INTL  PTSUNNY   88  50  27 SW20      29.89F
SPIRIT OF STL  PTSUNNY   85  54  34 SW12G20   29.88F
ST CHARLES     LGT RAIN  78  52  40 NW20G33   29.88S

$$
MOZ072>076-082>087-097>100-106>115-292200-
...SOUTH CENTRAL AND SOUTHEAST MISSOURI...

CITY           SKY/WX    TMP DP  RH WIND       PRES   REMARKS
CAPE GIRARDEAU MOSUNNY   85  56  37 W13       29.93F
FARMINGTON     MOSUNNY   83  54  36 W9        29.95F
POPLAR BLUFF   CLOUDY    84  60  44 SW13G18   29.94F
WEST PLAINS    SUNNY     83  57  41 W12       30.00F

$$



USA.gov is the U.S. government's official web portal to all federal, state and local government web resources and services.